Location: Burnett Creek
(33.6057°N, 96.0411°W)
Time: 05:25:17
(UTC+00:00)

Daily predictions for brighter satellites

Satellite Brightness Start Highest point End
(mag) Time Altitude Azimuth Time Altitude Azimuth Time Altitude Azimuth
CZ-4 R/B 1.4 01:59:07 10° SSE 02:02:42 53° ENE 02:06:19 10° N
Cosmos 158 Rocket 4.2 02:00:30 10° N 02:05:11 46° ENE 02:09:51 10° SE
Cosmos 1606 4.0 02:03:25 10° NE 02:05:26 16° ENE 02:07:27 10° ESE
CSL-04 Debris 4.4 02:00:23 10° SSE 02:05:32 51° ENE 02:10:42 10° N
GP-B 3.3 02:04:38 10° NNE 02:08:52 48° E 02:13:05 10° SSE
NOSS 3-3 (C) 4.2 02:04:51 10° SW 02:09:49 61° WNW 02:15:31 10° NNE
SJ-6B 4.1 02:07:13 10° SSW 02:10:32 37° W 02:13:50 10° NNW
Cosmos 1328 3.5 02:07:19 10° S 02:10:53 68° E 02:14:32 10° NNE
CZ-4B DEB 4.2 02:07:36 10° SSE 02:12:58 70° ENE 02:18:23 10° N
Cosmos 1703 Rocket 4.5 02:10:00 10° SSW 02:14:11 51° W 02:18:25 10° N
COSMOS 2406 4.3 02:09:14 10° N 02:14:14 30° ENE 02:18:59 11° ESE
ADEOS 3.7 02:09:10 10° SSE 02:14:16 62° ENE 02:19:24 10° N
CSL-04 Rocket 3.8 02:09:24 10° SSE 02:14:42 64° ENE 02:20:06 10° N
Cosmos 1656 Rocket 3.7 02:09:23 10° S 02:14:49 55° ESE 02:20:13 10° NNE
Terra 3.5 02:14:01 10° ESE 02:17:05 18° ENE 02:20:10 10° NNE
USA 186 1.9 02:14:51 10° SSE 02:17:24 38° ENE 02:19:58 10° N
CZ-4B R/B 3.6 02:13:20 10° SE 02:18:24 46° ENE 02:23:34 10° N
Cosmos 1461 2.9 02:14:33 10° NNW 02:18:37 79° WSW 02:22:36 10° SSE
Cosmos 2242 Rocket 4.2 02:15:18 10° SSE 02:19:15 34° E 02:23:12 10° NNE
USA 267 4.2 02:14:11 10° SSE 02:20:17 41° SW 02:26:25 10° WNW
ERS-1 Rocket 4.2 02:19:02 11° ESE 02:22:48 25° ENE 02:26:49 10° NNE
Meteor 1-24 Rocket 4.2 02:17:35 10° SSW 02:23:09 63° W 02:28:33 10° N
SPOT 5 3.3 02:19:32 10° SSE 02:24:35 55° ENE 02:29:45 10° N
CZ-4C R/B 3.2 02:25:00 13° ESE 02:25:08 13° ESE 02:27:00 10° E
Cosmos 1782 Rocket 3.6 02:23:26 10° N 02:27:50 65° E 02:32:09 10° SSE
CZ-2C R/B 2.6 02:25:23 10° S 02:28:36 67° W 02:31:48 10° NNW
CZ-4B R/B 3.5 02:28:58 16° SE 02:31:13 31° ENE 02:34:28 10° N
Cosmos 2082 Rocket 2.2 02:26:51 10° NNW 02:32:35 76° ENE 02:37:52 12° SSE
CZ-3A R/B 4.3 02:28:07 10° SW 02:33:00 45° SSE 03:03:10 10° E
CZ-3A R/B 4.3 02:28:07 10° SW 02:33:01 45° SSE 03:03:11 10° E
CZ-3A R/B 4.3 02:28:07 10° SW 02:33:01 45° SSE 03:03:10 10° E
CZ-3A R/B 4.3 02:28:06 10° SW 02:33:01 45° SSE 03:03:10 10° E
Cosmos 1464 Rocket 4.4 02:28:40 10° NNW 02:34:43 65° W 02:40:46 10° S
Cosmos 1340 Rocket 4.2 02:35:03 10° NNE 02:37:57 20° ENE 02:39:14 17° ESE
Cosmos 2369 Rocket 2.4 02:33:34 10° S 02:39:00 48° ESE 02:44:28 10° NNE
Timation 1 Rocket 4.4 02:37:00 10° NNW 02:43:01 84° WSW 02:48:26 13° SSE
Cosmos 220 Rocket 3.9 02:42:53 10° NNW 02:47:07 68° ENE 02:49:52 21° SSE
Helios 1A 3.3 02:44:05 10° NNE 02:47:46 38° E 02:49:58 20° SSE
Resurs 01 Rocket 4.0 02:44:45 10° SW 02:48:05 21° W 02:51:26 10° NW
Cosmos 1300 Rocket 3.9 02:45:22 10° NNW 02:49:40 63° W 02:53:54 10° S
Cosmos 1503 Rocket 4.0 02:45:46 10° S 02:50:49 57° ESE 02:55:52 10° NNE
Helios 1B rocket 2.6 02:50:48 26° SE 02:52:27 44° ENE 02:55:58 10° N
Okean-O 3.0 02:55:04 25° SE 02:57:10 44° ENE 03:01:20 10° N
Cosmos 2263 4.3 02:53:06 10° S 02:58:35 52° ESE 03:04:02 10° NNE
Cosmos 1354 Rocket 4.2 02:55:12 12° S 02:59:49 47° ESE 03:04:49 10° NNE
DELTA 2 R/B (1) 3.5 02:57:45 10° WSW 03:03:17 84° SSE 03:08:50 10° ENE
Cosmos 1378 Rocket 3.4 03:01:49 21° S 03:04:32 63° E 03:08:47 10° NNE
Okean O Rocket 1.5 03:02:23 25° SSE 03:04:52 78° ENE 03:09:15 10° N
Cosmos 1634 Rocket 3.9 02:59:44 10° N 03:05:54 75° E 03:10:18 20° SSE
Tiangong -2.2 03:02:57 10° WSW 03:06:11 79° SSE 03:07:43 29° ENE
MetOp-B 4.2 03:07:02 19° S 03:11:00 80° WSW 03:16:23 10° NNW
Cosmos 1025 Rocket 3.8 03:10:52 30° E 03:11:10 31° E 03:14:58 10° NNE
Cosmos 773 Rocket 4.2 03:06:07 10° N 03:11:17 54° ENE 03:13:28 32° SE
Ariane Rocket 4.3 03:11:57 21° E 03:13:09 23° ENE 03:17:06 10° NNE
ASTEX 1 3.9 03:14:08 10° NNE 03:18:37 37° E 03:19:18 35° ESE
CZ-4B R/B 3.9 03:15:37 18° S 03:19:26 62° WSW 03:24:36 10° NNW
IRS-1A Rocket 4.1 03:17:32 30° SSE 03:20:22 77° ENE 03:25:54 10° N
Cosmos 1777 Rocket 4.4 03:16:31 10° SSW 03:21:41 64° WNW 03:26:51 10° N
Cosmos 2279 Rocket 3.9 03:17:33 10° N 03:23:48 70° E 03:26:53 31° SSE
Meteor PRIRODA 3.6 03:25:45 46° WSW 03:25:51 47° W 03:28:36 10° NNW
Meteor 2-12 Rocket 4.4 03:29:32 29° S 03:32:47 71° E 03:38:53 10° NNE
Cosmos 1867 4.4 03:37:06 32° E 03:37:06 32° E 03:40:57 10° NE
SPOT 3 Rocket 3.9 03:37:50 43° ESE 03:38:46 48° ENE 03:43:46 10° N
Fengyun 1C 4.5 03:41:33 48° SSE 03:43:03 81° ENE 03:48:21 10° N
IRS-1C Rocket 4.1 03:42:39 51° SE 03:43:46 65° ENE 03:48:58 10° N
Cosmos 44 3.1 03:42:27 24° SW 03:44:56 73° WNW 03:49:17 10° NNE
Meteor 1-11 4.2 03:43:48 39° S 03:46:04 79° E 03:51:54 10° N
Spot 2 Rocket 3.5 03:46:23 49° S 03:47:48 80° WSW 03:52:53 10° NNW
TSX-5 4.3 03:48:50 10° NNW 03:51:12 46° N 03:51:12 46° N
Okean 2 Rocket 2.9 03:48:49 10° N 03:53:12 83° E 03:53:12 83° E
Terra 2.9 03:52:28 28° SW 03:54:16 39° W 03:58:40 10° NNW
Cosmos 2142 Rocket 4.5 03:48:53 10° N 03:55:15 83° W 03:57:29 43° S
Cosmos 1818 4.2 03:51:00 10° NNW 03:56:07 41° ENE 03:56:47 39° ENE
Cosmos 2151 Rocket 3.8 03:55:20 10° NNW 03:59:47 63° W 04:00:13 59° SW
Chandra Rocket (1) 4.0 03:47:52 10° SW 04:00:32 36° S 04:00:32 36° S
ERS-1 Rocket 4.5 03:58:55 20° SW 04:01:18 30° W 04:05:40 10° NW
Cosmos 2221 Rocket 4.3 04:02:08 41° SW 04:03:13 51° W 04:07:38 10° N
Okean 1 Rocket 3.2 04:04:56 10° N 04:08:48 69° NNW 04:08:48 69° NNW
CZ-4C R/B 2.9 04:09:47 16° WSW 04:12:35 38° NW 04:17:06 10° NNE
Cosmos 1627 Rocket 4.4 04:16:01 63° ESE 04:16:14 63° E 04:22:17 10° NNE
Aureole 1 Rocket 3.9 04:18:34 64° S 04:19:40 84° ESE 04:26:52 10° NNE
Cosmos 1455 Rocket 4.1 04:17:23 10° N 04:20:13 37° NNE 04:20:13 37° NNE
Sich 1 Rocket 4.4 04:19:50 10° NNW 04:24:02 48° W 04:24:02 48° W
NOSS 3-4 (A) 3.9 04:17:02 10° NNW 04:24:22 86° WSW 04:26:16 58° SSE
NOSS 3-4 (C) 3.9 04:17:06 10° NNW 04:24:25 87° WSW 04:26:17 58° SSE
Cosmos 372 Rocket 4.2 04:37:04 65° NNW 04:37:04 65° NNW 04:41:33 10° NNE
Cosmos 2297 Rocket 4.4 04:38:58 10° NNE 04:41:15 12° NE 04:41:49 12° ENE
Cosmos 2026 Rocket 4.0 04:47:18 64° WSW 04:47:43 66° W 04:53:45 10° N
DELTA 2 R/B (1) 4.4 04:44:36 10° W 04:49:57 48° N 04:51:41 36° NE
Ariane Rocket 4.2 04:52:03 32° W 04:52:03 32° W 04:56:20 10° NW
Cosmos 1937 Rocket 4.2 04:53:58 48° N 04:53:58 48° N 04:57:39 10° NNE
Cosmos 1553 Rocket 4.3 05:04:15 10° N 05:09:37 58° NE 05:09:37 58° NE
Cosmos 2297 Rocket 3.4 06:20:16 10° NNW 06:23:35 37° NNW 06:23:35 37° NNW
Cosmos 1980 Rocket 3.6 06:31:07 33° NE 06:31:07 33° NE 06:34:09 10° NNE
Cosmos 1697 Rocket 3.9 06:35:12 37° NNW 06:35:12 37° NNW 06:39:04 10° N
CZ-2C R/B 4.3 06:42:16 28° NE 06:42:16 28° NE 06:46:15 10° NNE
ATLAS 2AS CENTAUR R/B 4.3 06:42:38 10° N 06:48:12 27° NE 06:51:08 20° E
USA 215 3.7 06:52:20 55° ENE 06:52:48 56° NE 06:59:09 10° NW
Cosmos 2227 Rocket 3.3 06:52:57 10° NNW 06:56:29 40° NNW 06:56:29 40° NNW
Cosmos 2322 Rocket 4.0 07:30:13 22° E 07:30:13 22° E 07:33:29 10° NE
Nadezhda 1 Rocket 4.2 07:33:55 10° N 07:39:08 64° NNE 07:39:08 64° NNE
Cosmos 1745 Rocket 4.2 07:42:52 65° NNW 07:42:52 65° NNW 07:48:19 10° N
Milstar 3 Cent rocket 4.5 07:47:00 17° ESE 07:47:00 17° ESE 07:48:17 10° ESE
CENTAUR R/B 3.1 07:45:53 43° ENE 07:45:53 43° ENE 07:50:29 10° NE
Cosmos 2263 Rocket 3.2 07:41:39 10° NNW 07:45:10 40° NNW 07:45:10 40° NNW
Cosmos 2082 4.2 07:48:57 10° NNW 07:53:33 57° N 07:53:33 57° N
Cosmos 1709 Rocket 4.1 07:55:50 74° NNW 07:55:50 74° NNW 08:01:36 10° N
Lacrosse 5 rocket 4.2 07:52:27 10° NNW 07:52:34 11° NNW 07:52:34 11° NNW
SL-16 R/B 2.5 08:00:59 63° NNE 08:00:59 63° NNE 08:05:43 10° NNE
Cosmos 2333 Rocket 2.8 08:03:38 50° E 08:03:38 50° E 08:08:31 10° NNE
MSX 4.0 07:57:26 10° NNE 08:02:34 70° NE 08:02:34 70° NE
FENGYUN 3A 4.3 07:59:56 10° NNE 08:04:42 49° E 08:04:42 49° E
Cosmos 2219 4.2 08:04:39 10° NNW 08:08:09 37° NW 08:08:09 37° NW
Cosmos 1980 Rocket 4.3 08:12:51 15° WNW 08:13:03 15° NW 08:16:08 10° NNW
Meteor 1-10 Rocket 4.3 08:09:26 10° N 08:15:07 77° ENE 08:15:07 77° ENE
CZ-3 Stage 3 3.5 08:18:22 35° SE 08:18:22 35° SE 08:28:13 10° E
Meteor 1-20 Rocket 4.4 08:21:28 63° NW 08:21:28 63° NW 08:26:40 10° N
CZ-2C R/B 4.2 08:23:44 24° WNW 08:23:44 24° WNW 08:26:31 10° NW
Cosmos 1238 Rocket 4.4 08:17:35 10° NNW 08:20:45 37° NNW 08:20:45 37° NNW
NPP 3.8 08:18:41 10° N 08:23:30 67° NNW 08:23:30 67° NNW
Resurs 1-4 Rocket 2.3 08:27:08 10° NNE 08:32:25 63° ESE 08:32:34 63° ESE
H-2A R/B 2.8 08:28:18 10° NNE 08:31:28 49° NNE 08:31:28 49° NNE
ARIANE 6 FM1 Upper Stage 4.2 08:35:06 31° ENE 08:35:06 31° ENE 08:37:34 10° NE
ATLAS 2A CENTAUR R/B 4.4 08:37:51 49° S 08:39:05 52° SSE 08:57:27 10° E
ATLAS 2AS CENTAUR R/B 2.9 08:32:51 10° NW 08:38:28 50° W 08:38:28 50° W
SeaSat 1 3.7 08:38:54 13° SE 08:42:51 38° ENE 08:47:22 10° N
Cosmos 1844 Rocket 3.2 08:37:35 10° NNW 08:43:06 57° ENE 08:45:59 27° SE
Cosmos 2333 4.2 08:43:09 67° SE 08:43:39 71° ESE 08:49:15 10° NNE
IDEFIX/ARIANE 42P 3.5 08:40:45 10° N 08:44:56 35° WNW 08:44:56 35° WNW
CZ-2D R/B 1.9 08:41:35 10° NNE 08:46:48 80° ESE 08:47:09 75° SSE
Cosmos 1844 4.3 08:42:44 10° NNW 08:48:22 57° ENE 08:52:26 19° SE
Cosmos 2227 4.1 08:42:39 10° NNW 08:48:23 84° ENE 08:49:47 54° SSE
Cosmos 2360 Rocket 2.0 08:50:03 71° WSW 08:50:25 74° WNW 08:56:03 10° NNE
Cosmos 2184 Rocket 3.9 08:53:21 54° S 08:54:56 89° E 09:01:21 10° N
OAO 3 Rocket 3.2 09:02:52 62° NW 09:03:31 74° N 09:08:13 10° E
Cosmos 1269 Rocket 3.9 08:59:15 10° NNW 09:04:29 66° WSW 09:04:40 65° WSW
Cosmos 2219 Rocket 2.1 09:03:42 56° S 09:04:54 80° ESE 09:10:30 10° NNE
Cosmos 2154 Rocket 3.9 09:05:32 48° SSW 09:07:26 84° W 09:13:46 10° N
ALOS 2.0 09:05:02 10° NNE 09:09:37 88° W 09:10:04 72° SSW
H-2A R/B 3.5 09:07:24 10° NE 09:11:37 28° E 09:14:44 15° SSE
Cosmos 2322 Rocket 2.8 09:12:01 37° W 09:12:51 39° WNW 09:18:07 10° N
Cosmos 1805 4.1 09:12:59 35° ESE 09:13:19 36° E 09:16:31 10° NNE
NOSS 2-2 (C) 3.5 09:13:49 53° E 09:13:49 53° E 09:16:33 10° NE
ATLAS 5 CENTAUR R/B 2.3 09:11:12 10° NNW 09:16:10 71° ENE 09:22:19 10° SE
ADEOS II 2.0 09:12:42 10° N 09:17:55 74° WNW 09:19:13 51° SW
Cosmos 1707 4.0 09:16:16 10° NNW 09:17:55 26° NNW 09:17:55 26° NNW
Cosmos 2074 Rocket 4.2 09:18:22 43° SW 09:19:54 53° W 09:25:58 10° N
Cosmos 1624 Rocket 4.5 09:18:50 32° SSE 09:21:03 55° ESE 09:26:10 10° NNE
Cosmos 1420 Rocket 3.9 09:19:59 50° SSW 09:21:25 85° WNW 09:26:41 10° NNE
Envisat 3.0 09:23:54 10° N 09:28:55 68° WNW 09:30:29 43° SW
Meteor 1-18 Rocket 4.1 09:27:25 10° N 09:32:59 86° E 09:37:24 17° S
BREEZE-M DEB (TANK) 3.3 09:35:06 34° SSE 09:35:06 34° SSE 09:38:12 10° SE
Cosmos 2056 Rocket 3.5 09:31:58 34° S 09:34:15 79° ESE 09:39:25 10° NNE
Meteor 2-13 Rocket 4.4 09:29:20 10° N 09:35:29 86° E 09:41:12 12° S
CENTAUR R/B 3.9 09:32:59 16° WNW 09:35:36 22° NW 09:40:31 10° N
Cosmos 1371 Rocket 4.0 09:34:23 32° S 09:36:53 81° ESE 09:42:12 10° NNE
NOSS 3-2 (C) 3.0 09:37:36 36° SSW 09:39:37 77° ESE 09:45:08 10° NNE
Cosmos 1842 4.5 09:37:47 10° NNW 09:39:35 23° NW 09:39:35 23° NW
Meteor 2-10 4.0 09:40:23 35° SSW 09:42:30 63° W 09:47:35 10° N
SL-16 R/B 4.3 09:42:49 10° WNW 09:44:47 12° NW 09:46:59 10° NNW
Cosmos 2333 Rocket 3.8 09:45:39 16° W 09:47:34 19° WNW 09:51:34 10° NNW
NOSS 3-2 (A) 4.1 09:47:01 23° W 09:49:03 31° NW 09:53:59 10° NNE
ATLAS CENTAUR R/B 1.4 09:50:22 40° W 09:51:09 48° WNW 09:54:47 10° NNE
SL-16 R/B 2.7 09:45:22 10° SSE 09:51:36 79° ENE 09:57:52 10° N
Cosmos 1536 2.5 09:52:26 38° SSW 09:53:42 69° W 09:57:24 10° N
ARGOS Delta rocket 4.2 09:50:51 10° NNE 09:55:55 68° E 10:00:08 13° S
OAO 2 Rocket 4.0 09:57:47 29° SW 09:58:49 31° SSW 10:03:12 10° SE
NOSS 2-2 (E) 2.9 09:57:20 34° SSW 09:58:50 89° NW 10:02:01 10° NNE
SJ 16-02 3.8 09:57:51 10° NNE 10:01:20 24° ENE 10:04:48 10° ESE
CZ-2C R/B 3.1 09:57:09 10° NNE 10:02:09 55° E 10:07:10 10° S
Meteor 1-11 Rocket 4.3 09:57:37 10° S 10:03:07 58° E 10:08:46 10° NNE
AQUA 4.3 09:58:48 10° N 10:03:12 41° WNW 10:05:27 24° SW
SL-8 Rocket 3.9 09:58:03 13° S 10:03:41 86° W 10:09:55 10° N
CZ-3 R/B 3.9 09:23:11 10° W 10:05:45 69° SSW 10:15:52 10° ESE
Cosmos 1151 Rocket 3.3 10:02:49 10° NNW 10:06:54 44° W 10:09:25 21° SSW
Delta 2 Rocket 3.5 10:06:02 13° WNW 10:09:47 72° N 10:14:00 10° E
Cosmos 405 Rocket 3.3 10:10:40 25° W 10:11:15 27° WNW 10:14:04 10° NNW
COSMOS 2428 2.7 10:07:13 18° SSW 10:11:29 78° WNW 10:17:13 10° NNE
Resurs 1-4 Rocket 4.0 10:08:55 10° NNW 10:11:34 14° WNW 10:13:36 12° W
NOSS 0 Rocket 4.2 10:08:19 11° S 10:14:21 69° ESE 10:20:32 10° NNE
H-2A R/B 2.9 10:12:34 21° SW 10:15:18 55° SSE 10:35:39 10° E
Cosmos 2237 Rocket 3.3 10:10:17 10° S 10:15:31 41° ESE 10:20:48 10° NE
NOSS 2-2 (D) 3.5 10:14:17 24° WSW 10:16:05 43° WNW 10:19:08 10° NNE
Cosmos 2322 3.9 10:13:23 19° SW 10:17:25 57° WNW 10:23:01 10° NNE
Meteor 1-28 Rocket 2.9 10:16:16 10° S 10:19:34 58° W 10:22:52 10° NNW
SeaSat 1 3.6 10:18:29 18° SW 10:20:15 22° WSW 10:24:00 10° WNW
Milstar 3 Cent rocket 2.4 10:15:48 16° WSW 10:20:33 49° S 10:25:05 10° ESE
Cosmos 2084 Rocket 3.4 10:18:25 19° SW 10:21:22 74° WNW 10:25:37 10° NNE
ADEOS Rocket 3.9 10:14:32 10° NNE 10:22:18 71° ESE 10:29:54 10° S
Cosmos 407 Rocket 4.3 10:18:09 10° NW 10:22:40 30° W 10:27:13 10° SSW
CZ-2D R/B 4.2 10:25:09 10° NW 10:26:02 10° WNW 10:26:55 10° WNW
Cosmos 1844 Rocket 4.2 10:23:17 10° WNW 10:26:22 15° W 10:27:30 14° WSW
H-2A R/B 3.8 10:25:59 10° N 10:29:38 42° WNW 10:32:43 14° SW
Cosmos 2341 Rocket 4.3 10:26:24 10° SSW 10:32:16 48° W 10:38:16 10° N
Lacrosse 4 Rocket 1.3 10:31:16 13° SSW 10:34:51 73° WNW 10:38:58 10° NNE
Cosmos 2366 rocket 4.2 10:30:04 10° SSW 10:36:07 51° W 10:42:09 10° N
Cosmos 1766 Rocket 3.9 10:32:21 11° SSW 10:36:18 45° W 10:40:26 10° N
Cosmos 1943 Rocket 4.3 10:37:46 10° N 10:42:49 32° ENE 10:47:51 10° SE
ARGOS 3.2 10:37:35 10° N 10:43:01 79° WNW 10:48:24 10° SSW
Cosmos 1331 Rocket 3.9 10:38:09 10° SSW 10:43:17 76° WNW 10:48:25 10° NNE
TIMED 4.4 10:40:24 10° NNW 10:44:37 63° WSW 10:48:48 10° S
Iridium 4 Rocket 4.1 10:40:43 10° SSW 10:46:12 44° W 10:51:30 10° NNW
OAO 3 Rocket 3.1 10:42:00 10° W 10:46:43 73° SSW 10:51:21 10° ESE
Timation 2 Rocket 4.4 10:41:10 10° NNW 10:47:45 79° ENE 10:54:34 10° SSE
Cosmos 2219 Rocket 4.2 10:47:05 10° W 10:49:27 13° NW 10:51:48 10° NNW
NOSS 2-3 (E) 3.4 10:45:46 10° SSW 10:49:33 67° ESE 10:53:11 10° NE
Cosmos 1437 Rocket 2.9 10:46:14 10° NNW 10:49:42 42° W 10:53:07 10° SSW
H-2A R/B 3.2 10:46:51 10° NNW 10:50:46 25° WNW 10:54:40 10° WSW
UNK 3.8 10:46:34 10° S 10:50:58 53° W 10:55:26 10° NNW
Cosmos 1452 Rocket 3.5 10:46:06 10° SSW 10:51:18 76° WNW 10:56:34 10° NNE
Okean 3 Rocket 3.6 10:47:46 10° S 10:52:15 77° W 10:56:47 10° N
Cosmos 1515 Rocket 4.0 10:49:36 10° N 10:53:53 65° E 10:58:08 10° SSE
BREEZE-M DEB 3.1 10:51:11 10° NW 10:54:37 48° NNE 10:56:43 10° ESE
USA 234 3.3 10:48:36 10° NE 10:55:09 87° NW 11:01:41 10° SW
Cosmos 1954 Rocket 4.4 10:51:54 10° NNW 10:56:44 40° WSW 11:01:34 10° S
Cosmos 676 Rocket 4.1 10:52:04 10° NNW 10:57:07 55° WSW 11:02:09 10° S
ATLAS 5 CENTAUR R/B 3.7 10:55:55 10° W 10:58:54 15° WSW 11:02:10 10° SW
